{"data":{"norad_id":66432,"intl_designator":"2025-259L","name":"STARLINK-35446","alt_names":[],"object_type":"PAYLOAD","status":"ACTIVE","operator":null,"country":"US","launch_date":"2025-11-11","launch_site_code":"AFETR","launch_vehicle":null,"mission":null,"orbit_class":"UNKNOWN","rcs_meters":null,"size_class":null,"mass_kg":null,"dimensions":null,"purposes":["comms"],"wikipedia_slug":null,"has_3d_model":false,"image_url":null,"decayed_at":null,"tle_current":{"epoch":"2026-05-24T20:41:23.748288Z","epoch_age_seconds":90276,"freshness":"FRESH","line1":"1 66432U 25259L   26144.86208042  .00001089  00000+0  49072-4 0  9994","line2":"2 66432  43.0001 203.9254 0000799 264.4914  95.5846 15.27587748 31141","mean_motion":15.27587748,"eccentricity":7.99e-5,"inclination_deg":43.0001,"raan_deg":203.9254,"arg_perigee_deg":264.4914,"mean_anomaly_deg":95.5846,"bstar":4.9072e-5,"rev_number":3114,"period_min":94.266270588078,"perigee_km":482.47768892301,"apogee_km":483.57410275376,"semimajor_km":6861.1628958384,"source":"CELESTRAK","updated_at":"2026-05-25T13:38:21.208809Z"}}}